Dodge City, KS

12:03 AM CST on February 18, 2018 (GMT -0600)
Dodge City Regional

Weather History for KDDC - December, 2011

Change the Weather History Date:

Saturday, December 17, 2011

  Actual Average Record
Temperature  
Mean Temperature 39 °F -  
Max Temperature 52 °F 47 °F 79 °F (1939)
Min Temperature 26 °F 21 °F -5 °F (1902)
Degree Days  
Heating Degree Days 26    
Moisture  
Dew Point 25 °F    
Average Humidity 64    
Maximum Humidity 81    
Minimum Humidity 32    
Precipitation  
Precipitation 0.00 in - - ()
Sea Level Pressure  
Sea Level Pressure 30.41 in    
Wind  
Wind Speed 6 mph (SW)    
Max Wind Speed 10 mph    
Max Gust Speed -    
Visibility 10 miles    
Events      
Averages and records for this station are not official NWS values.
T = Trace of Precipitation, MM = Missing Value Source: NWS Daily Summary

Daily Weather History Graph

Daily Weather History Graph

Search for Another Location

Airport or City:

Trip Planner

Search our weather history database for the weather conditions in past years. The results will help you decide how hot, cold, wet, or windy it might be!

Date:

Astronomy

Dec. 17, 2011 Rise Set
Actual Time 7:49 AM CST 5:22 PM CST
Civil Twilight 7:19 AM CST 5:52 PM CST
Nautical Twilight 6:46 AM CST 6:25 PM CST
Astronomical Twilight 6:14 AM CST 6:57 PM CST
Moon No Moon Rise 12:12 PM CST (12/17)
Length of Visible Light 10h 32m
Length of Day
9h 33m
Waning Gibbous, 53% of the Moon is Illuminated
Dec 17
Waning Gibbous
Dec 17
Last Quarter
Dec 24
New
Jan 1
First Quarter
Jan 9
Full

Hourly Weather History & Observations

Time (CST) Temp. Windchill Dew Point Humidity Pressure Visibility Wind Dir Wind Speed Gust Speed Precip Events Conditions
12:52 AM 28.0 °F 22.8 °F 23.0 °F 81% 30.43 in 10.0 mi WSW 4.6 mph - N/A   Clear
1:52 AM 28.0 °F 21.7 °F 23.0 °F 81% 30.43 in 9.0 mi WSW 5.8 mph - N/A   Clear
2:52 AM 28.0 °F 22.8 °F 21.9 °F 78% 30.43 in 9.0 mi West 4.6 mph - N/A   Clear
3:52 AM 27.0 °F 21.6 °F 21.9 °F 81% 30.43 in 9.0 mi WNW 4.6 mph - N/A   Clear
4:52 AM 26.1 °F 20.5 °F 21.0 °F 81% 30.43 in 9.0 mi SW 4.6 mph - N/A   Clear
5:52 AM 28.0 °F 20.0 °F 21.9 °F 78% 30.44 in 10.0 mi West 8.1 mph - N/A   Clear
6:52 AM 27.0 °F 18.7 °F 21.0 °F 78% 30.45 in 9.0 mi West 8.1 mph - N/A   Clear
7:52 AM 27.0 °F 18.7 °F 21.9 °F 81% 30.47 in 8.0 mi West 8.1 mph - N/A   Clear
8:52 AM 30.0 °F 25.2 °F 24.1 °F 79% 30.47 in 7.0 mi WSW 4.6 mph - N/A   Clear
9:52 AM 39.0 °F 34.8 °F 27.0 °F 62% 30.45 in 10.0 mi WSW 5.8 mph - N/A   Clear
10:52 AM 43.0 °F 38.2 °F 28.0 °F 56% 30.47 in 10.0 mi West 8.1 mph - N/A   Clear
11:52 AM 48.0 °F - 27.0 °F 44% 30.45 in 10.0 mi West 5.8 mph - N/A   Clear
12:52 PM 48.9 °F - 25.0 °F 39% 30.42 in 10.0 mi WSW 8.1 mph - N/A   Clear
1:52 PM 51.1 °F - 26.1 °F 38% 30.39 in 10.0 mi WSW 8.1 mph - N/A   Clear
2:52 PM 52.0 °F - 25.0 °F 35% 30.38 in 10.0 mi SW 6.9 mph - N/A   Clear
3:52 PM 52.0 °F - 23.0 °F 32% 30.36 in 10.0 mi SW 10.4 mph - N/A   Clear
4:52 PM 48.0 °F - 27.0 °F 44% 30.37 in 10.0 mi South 6.9 mph - N/A   Clear
5:52 PM 39.9 °F 35.8 °F 27.0 °F 60% 30.38 in 10.0 mi SSW 5.8 mph - N/A   Clear
6:52 PM 39.0 °F 34.8 °F 27.0 °F 62% 30.38 in 10.0 mi SSW 5.8 mph - N/A   Clear
7:52 PM 34.0 °F 27.2 °F 25.0 °F 70% 30.38 in 10.0 mi SSW 8.1 mph - N/A   Clear
8:52 PM 33.1 °F 25.5 °F 25.0 °F 72% 30.37 in 10.0 mi SSW 9.2 mph - N/A   Clear
9:52 PM 33.1 °F 26.1 °F 25.0 °F 72% 30.35 in 10.0 mi South 8.1 mph - N/A   Clear
10:52 PM 35.1 °F 27.9 °F 25.0 °F 67% 30.32 in 10.0 mi South 9.2 mph - N/A   Clear
11:52 PM 35.1 °F 29.3 °F 27.0 °F 72% 30.30 in 10.0 mi South 6.9 mph - N/A   Clear